Regional Weather Roundup
Issued by NWS

Home | Current Version | Previous Version | Graphics & Text | Print | Product List | Glossary Off
Versions: 1 2 3 4 5 6 7 8 9 10 11 12 13 14 15 16 17 18 19 20 21 22 23 24 25 26 27 28 29 30 31 32 33 34 35 36 37 38 39 40 41 42 43 44 45 46 47 48 49 50

185
ASUS43 KMPX 231910
RWRMN
WEATHER ROUNDUP FOR MINNESOTA
NATIONAL WEATHER SERVICE TWIN CITIES/CHANHASSEN MN
100 PM CST THU FEB 23 2017


NOTE: "FAIR" INDICATES FEW OR NO CLOUDS BELOW 12,000 FEET WITH NO
SIGNIFICANT WEATHER AND/OR OBSTRUCTIONS TO VISIBILITY. N/A MEANS
CURRENT SKY AND/OR WEATHER CONDITIONS ARE NOT AVAILABLE.

MNZ060>063-068>070-232000-
   Twin Cities Metro

CITY           SKY/WX    TMP DP  RH WIND       PRES   REMARKS
TWIN CITIES    CLOUDY    38  23  55 N17       29.91F
ST PAUL        CLOUDY    37  27  67 N14       29.92F
CRYSTAL        CLOUDY    35  22  58 N10G21    29.91S WCI  27
BLAINE         CLOUDY    36  27  69 N13       29.92F
LAKEVILLE      CLOUDY    36  27  69 NE9G16    29.88F
EDEN PRAIRIE   CLOUDY    38  24  57 N13       29.89F
SOUTH ST PAUL  CLOUDY    37  26  63 N9        29.90S
LAKE ELMO      FAIR      37  28  70 N12       29.91F
$$
MNZ001>005-007-008-013>017-022>024-027-028-232000-
   Northwest Minnesota

CITY           SKY/WX    TMP DP  RH WIND       PRES   REMARKS
BEMIDJI        PTSUNNY   26  17  69 N8        29.98F WCI  17
HALLOCK        CLOUDY    25  18  74 N15       30.08F WCI  12
ROSEAU         CLOUDY    25  16  68 NW10      30.04F WCI  15
WARROAD        MOSUNNY   23  12  63 NW10G16   30.04F WCI  12
THIEF RVR FALL CLOUDY    26  17  68 NW16      30.04F WCI  14
CROOKSTON      CLOUDY    28  21  74 N17       30.06F WCI  16
FOSSTON        CLOUDY    25  18  74 N13       30.02S WCI  13
DETROIT LAKES  CLOUDY    28  23  80 N10G20    29.99F WCI  19
MOORHEAD       CLOUDY    28  21  74 N17       30.03F WCI  16
PARK RAPIDS    CLOUDY    27  17  66 N9        29.96F WCI  18
MAHNOMEN       CLOUDY    27  20  77 N15       30.01S WCI  15
$$
MNZ006-009>011-018-025>026-232000-
   North Central Minnesota

CITY           SKY/WX    TMP DP  RH WIND       PRES   REMARKS
BAUDETTE       CLOUDY    22  12  65 N10       30.01F WCI  11
FLAG ISLAND    MOSUNNY   23  10  58 NW15      30.02S WCI  10
INTL FALLS     SUNNY     24  10  55 NW12      29.97F WCI  13
WASKISH        SUNNY     27  16  63 N7        30.00F WCI  19
BIG FORK       SUNNY     28  14  54 NW6       29.96F WCI  22
LONGVILLE      CLOUDY    27  19  74 NW6       29.97F WCI  20
GRAND RAPIDS   CLOUDY    26  18  71 NW8       29.98F WCI  18
CRANE LAKE     PTSUNNY   25  14  63 NW12G17   29.97S WCI  14
ORR            SUNNY     27  10  50 CALM      29.92F
COOK           MOSUNNY   28  16  59 NW7       29.94F WCI  21
WALKER         FAIR      25  17  69 N8        29.97F WCI  16
$$
MNZ012-019>021-037-232000-
   Northeast Minnesota

CITY           SKY/WX    TMP DP  RH WIND       PRES   REMARKS
DULUTH         CLOUDY    27  22  81 NW9       29.92F WCI  18
ELY            SUNNY     28  12  50 NW10G16   29.90S WCI  19
HIBBING        PTSUNNY   24  20  84 NW13      29.94F WCI  12
EVELETH        MOSUNNY   28  19  69 NW7       29.93F WCI  20
DULUTH HARBOR  CLOUDY    30  25  80 CALM      29.98F
TWO HARBORS    MOSUNNY   34  25  69 NW6       29.91F WCI  29
SILVER BAY     MOSUNNY   34  23  64 NW5       29.89F WCI  30
GRAND MARAIS     N/A     38  17  42 VRB3      29.89S
G MARAIS ARPRT SUNNY     30  12  47 NW8       29.84S WCI  23
$$
MNZ029>031-032-039>041-046>048-054>057-064-232000-
   West Central Minnesota

CITY           SKY/WX    TMP DP  RH WIND       PRES   REMARKS
FERGUS FALLS   CLOUDY    28  21  74 NE10      30.03F WCI  19
WHEATON        CLOUDY    28  21  74 N13       30.01S WCI  18
MORRIS         PTSUNNY   30  25  80 N14       29.97R WCI  20
ALEXANDRIA     CLOUDY    28  22  78 NE13      29.96S WCI  17
ELBOW LAKE     CLOUDY    27  22  80 NE14      29.98S WCI  16
WADENA         CLOUDY    27  19  74 N12       29.96F WCI  16
GLENWOOD       CLOUDY    28  23  80 NE14      29.95S WCI  17
APPLETON       CLOUDY    34  25  69 NE13      29.96R WCI  25
BENSON         CLOUDY    34  21  60 NE12      29.98R WCI  25
ORTONVILLE     CLOUDY    30  23  74 N15       29.97S WCI  19
MADISON        PTSUNNY   36  27  69 N13       29.96S
WILLMAR        FAIR      32  27  80 NE12      29.95S WCI  23
$$
MNZ033>034-036-042>043-049>051-058-059-232000-
   Central Minnesota

CITY           SKY/WX    TMP DP  RH WIND       PRES   REMARKS
ST CLOUD       CLOUDY    29  22  75 N10       29.95F WCI  20
SAUK CENTRE    CLOUDY    29  22  75 N8        29.95S WCI  21
PAYNESVILLE    PTSUNNY   30  24  79 N12       29.95S WCI  20
AITKIN         CLOUDY    28  21  74 N8        29.95F WCI  20
PINE RIVER     CLOUDY    27  19  74 N7        30.00F WCI  19
BRAINERD       CLOUDY    26  21  81 NW10      29.97F WCI  16
STAPLES        PTSUNNY   27  21  80 N9        29.96F WCI  17
LONG PRAIRIE   PTSUNNY   28  23  80 NW9       29.95F WCI  20
LITTLE FALLS   PTSUNNY   30  23  74 N6        29.95F WCI  24
LITCHFIELD     CLOUDY    30  25  80 N13       29.94S WCI  20
BUFFALO        CLOUDY    31  24  74 N10       29.94F WCI  22
MAPLE LAKE     CLOUDY    31  25  78 NE12      29.95S WCI  22
HUTCHINSON     PTSUNNY   33  27  81 N7        29.94S WCI  26
$$
MNZ037-044-045-052-053-232000-
   East Central Minnesota

CITY           SKY/WX    TMP DP  RH WIND       PRES   REMARKS
PRINCETON      CLOUDY    30  23  74 N6        29.96F WCI  24
MORA           CLOUDY    28  23  80 NE6       29.97F WCI  22
CAMBRIDGE      CLOUDY    30  21  69 N6        29.94S WCI  24
RUSH CITY      CLOUDY    28  23  80 VRB7      29.96S WCI  21
MOOSE LAKE     CLOUDY    28  23  80 N5        29.95S WCI  23
HINCKLEY       CLOUDY    30  27  86 NE8       29.95F WCI  23
CLOQUET        CLOUDY    27  21  80 N9        29.94S WCI  17
MCGREGOR       CLOUDY    28  25  86 N8        29.96S WCI  20
$$
MNZ071>073-080-081-089-090-097-098-232000-
   Southwest Minnesota

CITY           SKY/WX    TMP DP  RH WIND       PRES   REMARKS
MONTEVIDEO     CLOUDY    32  27  80 E8        29.97S WCI  25
GRANITE FALLS  CLOUDY    32  27  80 N9        29.96F WCI  24
CANBY          CLOUDY    32  26  79 NE10      29.96R WCI  24
MARSHALL       CLOUDY    31  26  82 N14       29.93F WCI  21
REDWOOD FALLS  CLOUDY    32  24  72 N10       29.92F WCI  24
OLIVIA         CLOUDY    32  28  86 N13       29.92F WCI  22
PIPESTONE      CLOUDY    30  25  80 NE15G22   29.85F WCI  19
WINDOM         CLOUDY    32  27  80 N18       29.86F WCI  20
WORTHINGTON    LGT SNOW  30  26  85 N23       29.84F FOG     WCI  17
JACKSON          N/A     32  28  86 N16G23    29.84F WCI  21
TRACY          CLOUDY    32  28  86 N17       29.90F WCI  21
SLAYTON        CLOUDY    29  26  87 N20       29.86F WCI  16
$$
MNZ065>067-074>077-082>085-091>093-232000-
   South Central Minnesota

CITY           SKY/WX    TMP DP  RH WIND       PRES   REMARKS
MANKATO          N/A     34  27  75 NE14      29.88F WCI  25
NEW ULM        CLOUDY    34  27  75 N12       29.89F WCI  25
ST JAMES       CLOUDY    34  28  80 N15       29.88S WCI  24
FAIRMONT       LGT RAIN  33  29  85 N17       29.84S WCI  22
GLENCOE        CLOUDY    33  29  83 N6G16     29.90F WCI  28
FARIBAULT      CLOUDY    34  28  80 N13       29.86F WCI  25
OWATONNA       PTSUNNY   36  28  75 NE13      29.84F
WASECA         CLOUDY    34  30  86 N17       29.85F WCI  23
ALBERT LEA     CLOUDY    36  32  87 NE13      29.83R
$$
MNZ078>079-086>088-094>096-232000-
   Southeast Minnesota

CITY           SKY/WX    TMP DP  RH WIND       PRES   REMARKS
ROCHESTER      CLOUDY    36  32  85 NE14      29.81F
RED WING       CLOUDY    39  27  60 NE8       29.87F
STANTON        CLOUDY    37  31  79 N15       29.86F
DODGE CENTER   CLOUDY    36  30  80 NE13      29.82F
WINONA         CLOUDY    39  30  70 NE9       29.83F
AUSTIN         CLOUDY    37  30  75 NE10G17   29.81R
PRESTON        CLOUDY    38  31  77 NE14      29.81R
$$
ABBREVIATIONS USED IN REMARKS
   TC - TEMPERATURES IN CELSIUS
  WCI - WIND CHILL INDEX
   HX - HEAT INDEX
  VSB - VISIBILITY
$$




USA.gov is the U.S. government's official web portal to all federal, state and local government web resources and services.